Погода в Володарске

Россия / Нижегородская область     56°13′01″N   43°09′35″E
темп.,
°C
ветер,
м/с
пор.,
м/с
влажн.,
%
обл.,
%
осадки,
мм/ч
давл.,
гПа
погр.,
м
17 мая, пн
пн1700:00+14ююз118612 0.0 101511
03:00+14ссв118621 0.0 101610
06:00+16в127848 0.0 101771
09:00+22в22607 0.0 1017482
12:00+25вюв334965 0.0 10171001
15:00+26вюв345545 0.0 10161235
18:00+25в366973 0.0 1015342
21:00+20вюв398745 0.0 1015161
18 мая, вт
вт1800:00+17юв2389100 0.0 101640
03:00+16юв228797 0.0 101629
06:00+18вюв2778100 0.0 1016161
09:00+24вюв585699 0.0 1016469
12:00+26юв684972 0.0 10161018
15:00+28вюв574579 0.0 10151246
18:00+25вюв511595 0.0 1014596
21:00+20вюв4137215 0.0 1015289
19 мая, ср
ср1900:00+18юв415668 0.0 1014308
03:00+16вюв414735 0.0 1014277
06:00+18вюв413781 0.0 1014344
09:00+24вюв510570 0.0 1014550
12:00+27юв710490 0.0 1013939
15:00+28вюв710520 0.0 10131427
18:00+25вюв611620 0.0 1012809
21:00+21вюв5147720 0.0 1012554
20 мая, чт
чт2000:00+17юв378666 0.3 1013152
03:00+15в378947 0.3 1012127
06:00+17вюв412823 0.1 1011401
09:00+22юв610632 0.1 1010723
12:00+25юв712544 0.0 10101471
15:00+23ю711643 0.5 10101614
18:00+21ююз510688 0.4 10111098
21:00+16ю3108577 0.4 1012332
21 мая, пт
пт2100:00+14ю31090100 0.0 1012342
03:00+12ю310963 0.0 1013284
06:00+14юз5108744 0.0 1014521
09:00+16зюз5765100 0.0 10151004
12:00+19зюз57521 0.0 10171365
15:00+21зюз464545 0.0 10171849
18:00+18юз4964100 0.0 1018542
21:00+14ююз2684100 0.0 1019109